| time (UTC) | temp F | wind direction | speed knots | gust knots | rain 1hr in | rain 24hr in | rain mn in | humidity % | barometer mb |
| 20260507161502 | 50 | 275 | 13.0 | 20.0 | 0.00 | 0.00 | 0.00 | 48 | 1002.0 |
| 20260507160959 | 50 | 296 | 19.1 | 20.9 | 0.00 | 0.00 | 0.00 | 49 | 1002.0 |
| 20260507160455 | 50 | 325 | 9.6 | 20.0 | 0.00 | 0.00 | 0.00 | 48 | 1002.0 |
| 20260507155950 | 50 | 275 | 9.6 | 16.5 | 0.00 | 0.00 | 0.00 | 47 | 1002.0 |
| 20260507155447 | 50 | 254 | 11.3 | 19.1 | 0.00 | 0.00 | 0.00 | 50 | 1002.2 |
| 20260507154944 | 49 | 266 | 7.0 | 13.9 | 0.00 | 0.00 | 0.00 | 52 | 1002.2 |
| 20260507154440 | 50 | 288 | 11.3 | 15.6 | 0.00 | 0.00 | 0.00 | 54 | 1002.5 |
| 20260507153938 | 49 | 274 | 10.4 | 13.9 | 0.00 | 0.00 | 0.00 | 58 | 1002.1 |
| 20260507153435 | 49 | 309 | 12.2 | 13.9 | 0.00 | 0.00 | 0.00 | 56 | 1002.0 |
| 20260507152931 | 48 | 258 | 5.2 | 10.4 | 0.00 | 0.00 | 0.00 | 59 | 1002.3 |
| 20260507152427 | 49 | 286 | 5.2 | 9.6 | 0.00 | 0.00 | 0.00 | 58 | 1002.5 |
| 20260507151923 | 48 | 335 | 3.5 | 7.8 | 0.00 | 0.00 | 0.00 | 56 | 1002.4 |
| 20260507151420 | 48 | 285 | 7.8 | 12.2 | 0.00 | 0.00 | 0.00 | 60 | 1002.6 |
| 20260507150917 | 48 | 272 | 9.6 | 12.2 | 0.00 | 0.00 | 0.00 | 58 | 1002.6 |
| 20260507150413 | 48 | 6 | 2.6 | 7.8 | 0.00 | 0.00 | 0.00 | 59 | 1002.5 |
| 20260507145910 | 48 | 254 | 8.7 | 13.0 | 0.00 | 0.00 | 0.00 | 62 | 1002.5 |
| 20260507145406 | 48 | 283 | 11.3 | 11.3 | 0.00 | 0.00 | 0.00 | 60 | 1002.5 |
| 20260507144903 | 47 | 290 | 4.3 | 13.0 | 0.00 | 0.00 | 0.00 | 60 | 1002.4 |
| 20260507144400 | 47 | 272 | 7.8 | 15.6 | 0.00 | 0.00 | 0.00 | 61 | 1002.3 |
| 20260507143857 | 47 | 266 | 5.2 | 10.4 | 0.00 | 0.00 | 0.00 | 66 | 1002.6 |
| 20260507143354 | 47 | 275 | 7.8 | 13.0 | 0.00 | 0.00 | 0.00 | 64 | 1002.5 |
| 20260507142850 | 47 | 274 | 7.8 | 11.3 | 0.00 | 0.00 | 0.00 | 64 | 1002.4 |
| 20260507142347 | 47 | 259 | 5.2 | 11.3 | 0.00 | 0.00 | 0.00 | 68 | 1002.6 |
| 20260507141843 | 46 | 283 | 8.7 | 13.0 | 0.00 | 0.00 | 0.00 | 70 | 1002.7 |
| 20260507141340 | 46 | 236 | 6.1 | 16.5 | 0.00 | 0.00 | 0.00 | 67 | 1002.7 |
| 20260507140837 | 46 | 318 | 1.7 | 7.0 | 0.00 | 0.00 | 0.00 | 72 | 1002.6 |
| 20260507140333 | 46 | 259 | 3.5 | 7.8 | 0.00 | 0.00 | 0.00 | 73 | 1002.6 |
| 20260507135831 | 46 | 299 | 6.1 | 10.4 | 0.00 | 0.00 | 0.00 | 77 | 1002.7 |
| 20260507135328 | 45 | 277 | 6.1 | 8.7 | 0.00 | 0.00 | 0.00 | 82 | 1002.6 |
| 20260507134825 | 44 | 274 | 6.1 | 11.3 | 0.00 | 0.00 | 0.00 | 85 | 1002.6 |
| 20260507134321 | 44 | 258 | 3.5 | 6.1 | 0.00 | 0.00 | 0.00 | 91 | 1002.6 |
| 20260507133817 | 42 | 313 | 6.1 | 7.0 | 0.00 | 0.00 | 0.00 | 92 | 1002.6 |
| 20260507133313 | 42 | 284 | 3.5 | 3.5 | 0.00 | 0.00 | 0.00 | 93 | 1002.7 |
| 20260507132812 | 42 | 328 | 1.7 | 3.5 | 0.00 | 0.00 | 0.00 | 93 | 1002.7 |
| 20260507132308 | 42 | 286 | 3.5 | 5.2 | 0.00 | 0.00 | 0.00 | 93 | 1002.6 |
| 20260507131805 | 42 | 277 | 3.5 | 6.1 | 0.00 | 0.00 | 0.00 | 93 | 1002.6 |
| 20260507131302 | 43 | 300 | 1.7 | 5.2 | 0.00 | 0.00 | 0.00 | 95 | 1002.6 |
| 20260507130758 | 43 | 78 | 0.9 | 1.7 | 0.00 | 0.00 | 0.00 | 96 | 1002.6 |
| 20260507130256 | 43 | 66 | 1.7 | 1.7 | 0.00 | 0.00 | 0.00 | 97 | 1002.8 |
| 20260507125755 | 43 | 85 | 1.7 | 2.6 | 0.00 | 0.00 | 0.00 | 97 | 1002.6 |
| 20260507125252 | 43 | 50 | 4.3 | 4.3 | 0.00 | 0.00 | 0.00 | 97 | 1002.6 |
| 20260507124749 | 43 | 65 | 2.6 | 4.3 | 0.00 | 0.00 | 0.00 | 97 | 1002.6 |
| 20260507124245 | 43 | 60 | 3.5 | 3.5 | 0.00 | 0.00 | 0.00 | 98 | 1002.5 |
| 20260507123744 | 42 | 70 | 2.6 | 3.5 | 0.00 | 0.00 | 0.00 | 98 | 1002.6 |
| 20260507123241 | 42 | 76 | 3.5 | 4.3 | 0.00 | 0.00 | 0.00 | 98 | 1002.6 |
| 20260507122736 | 42 | 72 | 3.5 | 4.3 | 0.00 | 0.00 | 0.00 | 99 | 1002.7 |
| 20260507122232 | 42 | 79 | 3.5 | 4.3 | 0.00 | 0.00 | 0.00 | 99 | 1002.3 |
| 20260507121728 | 42 | 49 | 2.6 | 4.3 | 0.00 | 0.00 | 0.00 | 99 | 1002.6 |
| 20260507121224 | 42 | 74 | 4.3 | 4.3 | 0.00 | 0.00 | 0.00 | 99 | 1002.7 |
| 20260507120720 | 42 | 120 | 1.7 | 3.5 | 0.00 | 0.00 | 0.00 | 99 | 1002.5 |
| 20260507120218 | 42 | 100 | 1.7 | 1.7 | 0.00 | 0.00 | 0.00 | 99 | 1002.6 |
| 20260507115713 | 42 | 93 | 1.7 | 2.6 | 0.00 | 0.00 | 0.00 | 99 | 1002.3 |
| 20260507115209 | 41 | 74 | 2.6 | 5.2 | 0.00 | 0.00 | 0.00 | 99 | 1002.3 |
| 20260507114705 | 41 | 75 | 2.6 | 5.2 | 0.00 | 0.00 | 0.00 | 99 | 1002.2 |
| 20260507114203 | 41 | 56 | 4.3 | 4.3 | 0.00 | 0.00 | 0.00 | 99 | 1002.1 |
| 20260507113700 | 41 | 83 | 3.5 | 3.5 | 0.00 | 0.00 | 0.00 | 99 | 1002.4 |
| 20260507113157 | 41 | 60 | 1.7 | 3.5 | 0.00 | 0.00 | 0.00 | 99 | 1002.4 |
| 20260507112654 | 40 | 48 | 4.3 | 7.0 | 0.00 | 0.00 | 0.00 | 99 | 1002.4 |
| 20260507112151 | 40 | 56 | 2.6 | 6.1 | 0.00 | 0.00 | 0.00 | 99 | 1002.4 |
| 20260507111648 | 40 | 53 | 3.5 | 5.2 | 0.00 | 0.00 | 0.00 | 99 | 1002.4 |
| 20260507111145 | 40 | 82 | 4.3 | 5.2 | 0.00 | 0.00 | 0.00 | 99 | 1002.3 |
| 20260507110641 | 40 | 58 | 2.6 | 3.5 | 0.00 | 0.00 | 0.00 | 99 | 1002.4 |
| 20260507110138 | 39 | 53 | 3.5 | 4.3 | 0.00 | 0.00 | 0.00 | 99 | 1002.4 |
| 20260507105635 | 39 | 72 | 3.5 | 5.2 | 0.00 | 0.00 | 0.00 | 99 | 1002.2 |
| 20260507105131 | 40 | 71 | 6.1 | 7.8 | 0.00 | 0.00 | 0.00 | 99 | 1002.2 |
| 20260507104628 | 39 | 62 | 2.6 | 6.1 | 0.00 | 0.00 | 0.00 | 99 | 1002.3 |
| 20260507104125 | 39 | 67 | 5.2 | 5.2 | 0.00 | 0.00 | 0.00 | 99 | 1002.3 |
| 20260507103621 | 39 | 108 | 0.9 | 2.6 | 0.00 | 0.00 | 0.00 | 99 | 1002.3 |
| 20260507103118 | 39 | 59 | 2.6 | 2.6 | 0.00 | 0.00 | 0.00 | 99 | 1002.3 |
| 20260507102614 | 39 | 62 | 6.1 | 7.0 | 0.00 | 0.00 | 0.00 | 99 | 1002.3 |
| 20260507102110 | 39 | 85 | 2.6 | 2.6 | 0.00 | 0.00 | 0.00 | 99 | 1002.3 |
| 20260507101606 | 39 | 83 | 3.5 | 5.2 | 0.00 | 0.00 | 0.00 | 99 | 1002.2 |
| 20260507101102 | 39 | 68 | 3.5 | 4.3 | 0.00 | 0.00 | 0.00 | 99 | 1002.1 |
| 20260507100559 | 39 | 69 | 5.2 | 8.7 | 0.00 | 0.00 | 0.00 | 99 | 1002.1 |
| 20260507100058 | 39 | 72 | 6.1 | 7.8 | 0.00 | 0.00 | 0.00 | 99 | 1002.1 |
| 20260507095555 | 39 | 77 | 7.0 | 7.0 | 0.00 | 0.00 | 0.00 | 99 | 1002.0 |
| 20260507095052 | 39 | 29 | 1.7 | 3.5 | 0.00 | 0.00 | 0.00 | 98 | 1002.2 |
| 20260507094548 | 39 | 72 | 4.3 | 5.2 | 0.00 | 0.00 | 0.00 | 98 | 1002.1 |
| 20260507094045 | 39 | 83 | 1.7 | 3.5 | 0.00 | 0.00 | 0.00 | 98 | 1002.3 |
| 20260507093543 | 39 | 103 | 1.7 | 2.6 | 0.00 | 0.00 | 0.00 | 98 | 1002.2 |
| 20260507093041 | 39 | 79 | 3.5 | 7.8 | 0.00 | 0.00 | 0.00 | 98 | 1002.1 |
| 20260507092537 | 39 | 61 | 5.2 | 7.8 | 0.00 | 0.00 | 0.00 | 98 | 1002.0 |
| 20260507092034 | 39 | 74 | 6.1 | 6.1 | 0.00 | 0.00 | 0.00 | 98 | 1002.2 |
| 20260507091531 | 39 | 53 | 5.2 | 7.8 | 0.00 | 0.00 | 0.00 | 98 | 1001.8 |
| 20260507091027 | 39 | 77 | 4.3 | 4.3 | 0.00 | 0.00 | 0.00 | 98 | 1002.0 |
| 20260507090523 | 39 | 38 | 0.9 | 3.5 | 0.00 | 0.00 | 0.00 | 98 | 1002.1 |
| 20260507090020 | 39 | 114 | 1.7 | 1.7 | 0.00 | 0.00 | 0.00 | 98 | 1002.2 |
| 20260507085517 | 40 | 61 | 3.5 | 4.3 | 0.00 | 0.00 | 0.00 | 98 | 1002.1 |
| 20260507085014 | 40 | 74 | 3.5 | 3.5 | 0.00 | 0.00 | 0.00 | 98 | 1002.1 |
| 20260507084510 | 40 | 73 | 3.5 | 4.3 | 0.00 | 0.00 | 0.00 | 98 | 1002.1 |
| 20260507084007 | 40 | 81 | 3.5 | 5.2 | 0.00 | 0.00 | 0.00 | 98 | 1002.3 |
| 20260507083503 | 40 | 72 | 3.5 | 4.3 | 0.00 | 0.00 | 0.00 | 98 | 1002.3 |
| 20260507083000 | 40 | 92 | 2.6 | 3.5 | 0.00 | 0.00 | 0.00 | 98 | 1002.4 |
| 20260507082457 | 40 | 103 | 0.9 | 1.7 | 0.00 | 0.00 | 0.00 | 98 | 1002.4 |
| 20260507081953 | 40 | 86 | 1.7 | 2.6 | 0.00 | 0.00 | 0.00 | 98 | 1002.4 |
| 20260507081449 | 40 | 74 | 1.7 | 2.6 | 0.00 | 0.00 | 0.00 | 98 | 1002.3 |
| 20260507080946 | 40 | 66 | 1.7 | 1.7 | 0.00 | 0.00 | 0.00 | 98 | 1002.4 |
| 20260507080442 | 40 | 53 | 1.7 | 2.6 | 0.00 | 0.00 | 0.00 | 98 | 1002.2 |
| 20260507075937 | 40 | 0 | 0.0 | 5.2 | 0.00 | 0.00 | 0.00 | 98 | 1002.1 |
| 20260507075434 | 40 | 299 | 1.7 | 3.5 | 0.00 | 0.00 | 0.00 | 98 | 1002.0 |
| 20260507074931 | 40 | 39 | 1.7 | 1.7 | 0.00 | 0.00 | 0.00 | 98 | 1002.1 |
| 20260507074427 | 40 | 304 | 0.0 | 1.7 | 0.00 | 0.00 | 0.00 | 98 | 1002.0 |
| 20260507073925 | 40 | 58 | 0.0 | 1.7 | 0.00 | 0.00 | 0.00 | 98 | 1002.1 |
| 20260507073422 | 40 | 53 | 0.9 | 1.7 | 0.00 | 0.00 | 0.00 | 98 | 1002.1 |
| 20260507072919 | 40 | 26 | 0.0 | 1.7 | 0.00 | 0.00 | 0.00 | 98 | 1002.1 |
| 20260507072416 | 41 | 110 | 1.7 | 1.7 | 0.00 | 0.00 | 0.00 | 98 | 1002.0 |
| 20260507071914 | 40 | 104 | 1.7 | 2.6 | 0.00 | 0.00 | 0.00 | 98 | 1001.9 |
| 20260507071410 | 41 | 102 | 0.0 | 1.7 | 0.00 | 0.00 | 0.00 | 98 | 1001.8 |
| 20260507070906 | 41 | 30 | 0.0 | 1.7 | 0.00 | 0.00 | 0.00 | 98 | 1002.0 |
| 20260507070404 | 41 | 327 | 0.9 | 2.6 | 0.00 | 0.00 | 0.00 | 98 | 1002.0 |
| 20260507065901 | 41 | 89 | 0.9 | 1.7 | 0.00 | 0.00 | 0.00 | 98 | 1002.1 |
| 20260507065357 | 41 | 104 | 0.0 | 3.5 | 0.00 | 0.00 | 0.00 | 98 | 1002.0 |
| 20260507064855 | 41 | 113 | 1.7 | 2.6 | 0.00 | 0.00 | 0.00 | 98 | 1001.9 |
| 20260507064353 | 41 | 60 | 1.7 | 1.7 | 0.00 | 0.00 | 0.00 | 98 | 1002.0 |
| 20260507063851 | 41 | 283 | 1.7 | 1.7 | 0.00 | 0.00 | 0.00 | 98 | 1002.3 |
| 20260507063347 | 41 | 282 | 2.6 | 2.6 | 0.00 | 0.00 | 0.00 | 98 | 1002.0 |
| 20260507062844 | 41 | 296 | 0.9 | 1.7 | 0.00 | 0.00 | 0.00 | 98 | 1002.2 |
| 20260507062341 | 41 | 286 | 1.7 | 1.7 | 0.00 | 0.00 | 0.00 | 98 | 1002.1 |
| 20260507061839 | 41 | 355 | 0.0 | 1.7 | 0.00 | 0.00 | 0.00 | 97 | 1002.1 |
| 20260507061337 | 41 | 253 | 0.0 | 2.6 | 0.00 | 0.00 | 0.00 | 97 | 1002.1 |
| 20260507060835 | 41 | 17 | 0.0 | 0.9 | 0.00 | 0.00 | 0.00 | 97 | 1002.2 |
| 20260507060331 | 41 | 60 | 0.0 | 1.7 | 0.00 | 0.00 | 0.00 | 97 | 1002.2 |
| 20260507055828 | 41 | 325 | 0.0 | 1.7 | 0.00 | 0.00 | 0.00 | 97 | 1002.5 |
| 20260507055323 | 41 | 334 | 0.0 | 1.7 | 0.00 | 0.00 | 0.00 | 97 | 1002.3 |
| 20260507054820 | 41 | 287 | 1.7 | 1.7 | 0.00 | 0.00 | 0.00 | 97 | 1002.6 |
| 20260507054316 | 41 | 329 | 0.9 | 1.7 | 0.00 | 0.00 | 0.00 | 96 | 1002.5 |
| 20260507053814 | 41 | 325 | 0.9 | 3.5 | 0.00 | 0.00 | 0.00 | 96 | 1002.5 |
| 20260507053311 | 42 | 267 | 1.7 | 3.5 | 0.00 | 0.00 | 0.00 | 96 | 1002.6 |
| 20260507052810 | 42 | 100 | 0.0 | 3.5 | 0.00 | 0.00 | 0.00 | 96 | 1002.0 |
| 20260507052307 | 42 | 303 | 1.7 | 1.7 | 0.00 | 0.00 | 0.00 | 96 | 1002.2 |
| 20260507051804 | 42 | 317 | 2.6 | 2.6 | 0.00 | 0.00 | 0.00 | 96 | 1002.5 |
| 20260507051301 | 42 | 316 | 1.7 | 3.5 | 0.00 | 0.00 | 0.00 | 96 | 1002.5 |
| 20260507050753 | 42 | 35 | 0.0 | 2.6 | 0.00 | 0.00 | 0.00 | 96 | 1002.4 |
| 20260507050249 | 42 | 269 | 0.9 | 4.3 | 0.00 | 0.00 | 0.00 | 96 | 1002.5 |
| 20260507045746 | 42 | 290 | 1.7 | 3.5 | 0.00 | 0.00 | 0.00 | 96 | 1002.5 |
| 20260507045243 | 42 | 284 | 3.5 | 6.1 | 0.00 | 0.00 | 0.00 | 97 | 1002.5 |
| 20260507044740 | 42 | 267 | 3.5 | 6.1 | 0.00 | 0.00 | 0.00 | 97 | 1002.6 |
| 20260507044236 | 42 | 287 | 6.1 | 7.8 | 0.00 | 0.00 | 0.00 | 97 | 1002.3 |
| 20260507043732 | 42 | 350 | 1.7 | 3.5 | 0.00 | 0.00 | 0.00 | 97 | 1002.4 |
| 20260507043229 | 42 | 44 | 1.7 | 2.6 | 0.00 | 0.00 | 0.00 | 97 | 1002.6 |
| 20260507042725 | 42 | 16 | 0.0 | 1.7 | 0.00 | 0.00 | 0.00 | 97 | 1002.6 |
| 20260507042225 | 42 | 38 | 0.0 | 2.6 | 0.00 | 0.00 | 0.00 | 97 | 1002.4 |
| 20260507041723 | 42 | 38 | 0.0 | 1.7 | 0.00 | 0.00 | 0.00 | 97 | 1002.4 |
| 20260507041220 | 42 | 323 | 1.7 | 2.6 | 0.00 | 0.00 | 0.00 | 97 | 1002.4 |
| 20260507040717 | 42 | 101 | 1.7 | 1.7 | 0.00 | 0.00 | 0.00 | 97 | 1002.5 |
| 20260507040213 | 42 | 256 | 1.7 | 3.5 | 0.00 | 0.00 | 0.00 | 97 | 1002.5 |
| 20260507035709 | 42 | 274 | 1.7 | 2.6 | 0.00 | 0.86 | 0.86 | 97 | 1002.5 |
| 20260507035205 | 42 | 352 | 1.7 | 2.6 | 0.00 | 0.86 | 0.86 | 97 | 1002.7 |
| 20260507034702 | 42 | 339 | 2.6 | 5.2 | 0.00 | 0.86 | 0.86 | 97 | 1002.7 |
| 20260507034159 | 42 | 298 | 1.7 | 2.6 | 0.00 | 0.86 | 0.86 | 98 | 1002.7 |
| 20260507033658 | 42 | 179 | 1.7 | 4.3 | 0.00 | 0.86 | 0.86 | 97 | 1002.8 |
| 20260507033154 | 42 | 273 | 1.7 | 1.7 | 0.00 | 0.86 | 0.86 | 97 | 1002.9 |
| 20260507032652 | 42 | 27 | 0.0 | 1.7 | 0.00 | 0.86 | 0.86 | 97 | 1002.6 |
| 20260507032147 | 42 | 80 | 1.7 | 3.5 | 0.00 | 0.86 | 0.86 | 97 | 1002.4 |
| 20260507031645 | 42 | 88 | 1.7 | 2.6 | 0.00 | 0.86 | 0.86 | 97 | 1002.4 |
| 20260507031141 | 42 | 76 | 1.7 | 1.7 | 0.00 | 0.86 | 0.86 | 97 | 1002.5 |
| 20260507030638 | 43 | 74 | 1.7 | 2.6 | 0.02 | 0.86 | 0.86 | 97 | 1002.7 |
| 20260507030136 | 43 | 283 | 0.0 | 1.7 | 0.02 | 0.86 | 0.86 | 97 | 1003.1 |
| 20260507025633 | 43 | 256 | 0.9 | 1.7 | 0.00 | 0.85 | 0.85 | 97 | 1002.9 |
| 20260507025129 | 43 | 71 | 0.9 | 2.6 | 0.00 | 0.85 | 0.85 | 97 | 1002.9 |
| 20260507024628 | 43 | 336 | 0.0 | 1.7 | 0.00 | 0.85 | 0.85 | 96 | 1002.8 |
| 20260507024125 | 43 | 259 | 0.0 | 2.6 | 0.00 | 0.85 | 0.85 | 96 | 1002.8 |
| 20260507023620 | 43 | 238 | 1.7 | 2.6 | 0.00 | 0.85 | 0.85 | 96 | 1003.1 |
| 20260507023118 | 43 | 276 | 1.7 | 2.6 | 0.02 | 0.85 | 0.85 | 97 | 1003.1 |
| 20260507022614 | 43 | 233 | 0.9 | 2.6 | 0.02 | 0.85 | 0.85 | 96 | 1002.8 |
| 20260507022110 | 43 | 125 | 0.9 | 1.7 | 0.00 | 0.85 | 0.85 | 96 | 1002.9 |
| 20260507021606 | 43 | 45 | 1.7 | 1.7 | 0.02 | 0.85 | 0.85 | 96 | 1003.0 |
| 20260507021102 | 43 | 37 | 1.7 | 1.7 | 0.00 | 0.85 | 0.85 | 96 | 1003.1 |
| 20260507020601 | 43 | 253 | 0.9 | 1.7 | 0.00 | 0.85 | 0.85 | 96 | 1003.0 |
| 20260507020056 | 43 | 281 | 1.7 | 7.0 | 0.02 | 0.85 | 0.85 | 96 | 1003.3 |
| 20260507015555 | 43 | 282 | 1.7 | 3.5 | 0.02 | 0.85 | 0.85 | 96 | 1003.1 |
| 20260507015052 | 43 | 251 | 1.7 | 5.2 | 0.02 | 0.84 | 0.84 | 96 | 1002.9 |
| 20260507014549 | 43 | 293 | 5.2 | 6.1 | 0.05 | 0.84 | 0.84 | 96 | 1003.1 |
| 20260507014044 | 44 | 190 | 1.7 | 5.2 | 0.02 | 0.84 | 0.84 | 96 | 1003.1 |
| 20260507013541 | 43 | 0 | 1.7 | 9.6 | 0.00 | 0.83 | 0.83 | 97 | 1003.1 |
| 20260507013039 | 44 | 260 | 4.3 | 7.0 | 0.00 | 0.83 | 0.83 | 97 | 1003.1 |
| 20260507012536 | 44 | 288 | 2.6 | 3.5 | 0.02 | 0.83 | 0.83 | 97 | 1002.9 |
| 20260507012032 | 44 | 174 | 1.7 | 2.6 | 0.02 | 0.83 | 0.83 | 97 | 1002.9 |
| 20260507011530 | 44 | 38 | 0.0 | 0.9 | 0.00 | 0.83 | 0.83 | 97 | 1002.8 |
| 20260507011025 | 43 | 39 | 0.0 | 1.7 | 0.00 | 0.83 | 0.83 | 97 | 1002.7 |
| 20260507010520 | 43 | 71 | 1.7 | 1.7 | 0.00 | 0.83 | 0.83 | 97 | 1002.9 |
| 20260507010017 | 43 | 41 | 1.7 | 2.6 | 0.02 | 0.83 | 0.83 | 97 | 1002.5 |
| 20260507005514 | 43 | 68 | 2.6 | 2.6 | 0.05 | 0.83 | 0.83 | 97 | 1002.4 |
| 20260507005010 | 44 | 72 | 1.7 | 3.5 | 0.05 | 0.83 | 0.83 | 97 | 1002.4 |
| 20260507004508 | 44 | 73 | 1.7 | 2.6 | 0.02 | 0.82 | 0.82 | 97 | 1002.6 |
| 20260507004005 | 43 | 22 | 0.0 | 0.9 | 0.02 | 0.82 | 0.82 | 97 | 1002.6 |
| 20260507003500 | 43 | 326 | 0.0 | 0.0 | 0.02 | 0.82 | 0.82 | 97 | 1002.5 |
| 20260507002955 | 43 | 117 | 0.9 | 1.7 | 0.00 | 0.81 | 0.81 | 97 | 1002.2 |
| 20260507002452 | 43 | 317 | 2.6 | 3.5 | 0.00 | 0.81 | 0.81 | 97 | 1002.4 |
| 20260507001949 | 43 | 60 | 0.0 | 1.7 | 0.00 | 0.81 | 0.81 | 97 | 1002.2 |
| 20260507001445 | 44 | 18 | 0.0 | 3.5 | 0.02 | 0.81 | 0.81 | 97 | 1001.8 |
| 20260507000943 | 43 | 86 | 1.7 | 1.7 | 0.02 | 0.81 | 0.81 | 96 | 1002.1 |
| 20260507000439 | 43 | 105 | 1.7 | 1.7 | 0.05 | 0.81 | 0.81 | 96 | 1002.0 |
| 20260506235935 | 43 | 41 | 2.6 | 4.3 | 0.09 | 0.81 | 0.81 | 96 | 1001.7 |
| 20260506235433 | 44 | 67 | 2.6 | 3.5 | 0.09 | 0.80 | 0.80 | 96 | 1001.7 |
| 20260506234932 | 44 | 82 | 3.5 | 4.3 | 0.09 | 0.80 | 0.80 | 96 | 1001.6 |
| 20260506234431 | 44 | 104 | 2.6 | 2.6 | 0.02 | 0.78 | 0.78 | 96 | 1001.8 |
| 20260506233928 | 44 | 77 | 1.7 | 3.5 | 0.02 | 0.78 | 0.78 | 96 | 1001.7 |
| 20260506233425 | 44 | 56 | 3.5 | 4.3 | 0.02 | 0.78 | 0.78 | 96 | 1001.8 |
| 20260506232921 | 44 | 92 | 2.6 | 3.5 | 0.00 | 0.78 | 0.78 | 96 | 1001.9 |
| 20260506232418 | 44 | 87 | 2.6 | 3.5 | 0.00 | 0.78 | 0.78 | 95 | 1001.8 |
| 20260506231913 | 44 | 94 | 1.7 | 2.6 | 0.00 | 0.78 | 0.78 | 95 | 1001.4 |
| 20260506231411 | 44 | 91 | 1.7 | 6.1 | 0.00 | 0.78 | 0.78 | 95 | 1001.6 |
| 20260506230908 | 44 | 64 | 5.2 | 5.2 | 0.00 | 0.78 | 0.78 | 95 | 1001.5 |
| 20260506230405 | 44 | 327 | 2.6 | 4.3 | 0.00 | 0.78 | 0.78 | 95 | 1001.6 |
| 20260506225901 | 44 | 348 | 4.3 | 4.3 | 0.00 | 0.78 | 0.78 | 95 | 1001.5 |
| 20260506225359 | 44 | 329 | 4.3 | 5.2 | 0.00 | 0.78 | 0.78 | 95 | 1001.3 |
| 20260506224855 | 44 | 67 | 5.2 | 5.2 | 0.00 | 0.78 | 0.78 | 94 | 1001.5 |
| 20260506224353 | 44 | 81 | 3.5 | 3.5 | 0.00 | 0.78 | 0.78 | 94 | 1001.4 |
| 20260506223849 | 44 | 15 | 1.7 | 4.3 | 0.00 | 0.78 | 0.78 | 94 | 1001.2 |
| 20260506223344 | 44 | 348 | 2.6 | 4.3 | 0.00 | 0.78 | 0.78 | 94 | 1001.3 |
| 20260506222842 | 44 | 221 | 2.6 | 3.5 | 0.00 | 0.78 | 0.78 | 94 | 1001.1 |
| 20260506222337 | 44 | 253 | 2.6 | 4.3 | 0.00 | 0.78 | 0.78 | 95 | 1001.1 |
| 20260506221835 | 44 | 252 | 1.7 | 5.2 | 0.00 | 0.78 | 0.78 | 95 | 1001.0 |
| 20260506221332 | 44 | 347 | 4.3 | 7.8 | 0.00 | 0.78 | 0.78 | 95 | 1000.9 |
| 20260506220830 | 44 | 335 | 1.7 | 5.2 | 0.00 | 0.78 | 0.78 | 95 | 1001.0 |
| 20260506220325 | 45 | 97 | 1.7 | 6.1 | 0.00 | 0.78 | 0.78 | 95 | 1000.7 |
| 20260506215822 | 45 | 66 | 0.0 | 2.6 | 0.00 | 0.78 | 0.78 | 95 | 1001.0 |
| 20260506215318 | 45 | 299 | 4.3 | 11.3 | 0.00 | 0.78 | 0.78 | 95 | 1000.7 |
| 20260506214814 | 45 | 9 | 0.9 | 9.6 | 0.00 | 0.78 | 0.78 | 95 | 1000.8 |
| 20260506214311 | 45 | 357 | 3.5 | 7.8 | 0.00 | 0.78 | 0.78 | 96 | 1000.9 |
| 20260506213809 | 45 | 260 | 1.7 | 1.7 | 0.00 | 0.78 | 0.78 | 96 | 1000.9 |
| 20260506213306 | 45 | 39 | 2.6 | 3.5 | 0.00 | 0.78 | 0.78 | 96 | 1000.8 |
| 20260506212803 | 45 | 331 | 1.7 | 4.3 | 0.00 | 0.78 | 0.78 | 96 | 1000.8 |
| 20260506212259 | 45 | 10 | 2.6 | 3.5 | 0.02 | 0.78 | 0.78 | 96 | 1000.8 |
| 20260506211754 | 45 | 314 | 2.6 | 3.5 | 0.02 | 0.78 | 0.78 | 96 | 1000.7 |
| 20260506211251 | 45 | 3 | 1.7 | 4.3 | 0.00 | 0.77 | 0.77 | 96 | 1000.7 |
| 20260506210748 | 45 | 330 | 7.0 | 7.0 | 0.02 | 0.77 | 0.77 | 96 | 1000.7 |
| 20260506210244 | 45 | 317 | 0.9 | 6.1 | 0.07 | 0.77 | 0.77 | 96 | 1000.7 |
| 20260506205742 | 45 | 303 | 1.7 | 5.2 | 0.05 | 0.76 | 0.76 | 96 | 1000.6 |
| 20260506205237 | 45 | 295 | 1.7 | 4.3 | 0.19 | 0.76 | 0.76 | 95 | 1000.6 |
| 20260506204734 | 45 | 338 | 0.9 | 6.1 | 0.17 | 0.75 | 0.75 | 95 | 1000.6 |
| 20260506204232 | 45 | 338 | 3.5 | 8.7 | 0.05 | 0.73 | 0.73 | 95 | 1000.8 |
| 20260506203731 | 45 | 12 | 1.7 | 10.4 | 0.05 | 0.72 | 0.72 | 95 | 1000.7 |
| 20260506203227 | 45 | 334 | 5.2 | 8.7 | 0.05 | 0.72 | 0.72 | 95 | 1000.6 |
| 20260506202725 | 45 | 329 | 5.2 | 9.6 | 0.05 | 0.72 | 0.72 | 95 | 1000.5 |
| 20260506202221 | 45 | 187 | 1.7 | 7.0 | 0.02 | 0.71 | 0.71 | 95 | 1000.2 |
| 20260506201718 | 45 | 358 | 4.3 | 10.4 | 0.02 | 0.71 | 0.71 | 95 | 1000.4 |
| 20260506201215 | 46 | 6 | 2.6 | 7.0 | 0.02 | 0.71 | 0.71 | 95 | 1000.6 |
| 20260506200711 | 46 | 27 | 7.0 | 10.4 | 0.00 | 0.70 | 0.70 | 95 | 1000.5 |
| 20260506200208 | 46 | 2 | 2.6 | 6.1 | 0.00 | 0.70 | 0.70 | 95 | 1000.5 |
| 20260506195704 | 46 | 303 | 6.1 | 6.1 | 0.00 | 0.70 | 0.70 | 95 | 1000.5 |
| 20260506195201 | 46 | 46 | 4.3 | 5.2 | 0.05 | 0.70 | 0.70 | 95 | 1000.7 |
| 20260506194658 | 46 | 54 | 3.5 | 6.1 | 0.05 | 0.70 | 0.70 | 95 | 1000.6 |
| 20260506194154 | 46 | 334 | 2.6 | 6.1 | 0.02 | 0.70 | 0.70 | 95 | 1000.4 |
| 20260506193652 | 46 | 320 | 3.5 | 7.0 | 0.00 | 0.69 | 0.69 | 95 | 1000.6 |
| 20260506193149 | 47 | 279 | 4.3 | 4.3 | 0.00 | 0.69 | 0.69 | 95 | 1000.4 |
| 20260506192646 | 47 | 341 | 3.5 | 9.6 | 0.00 | 0.69 | 0.69 | 94 | 1000.6 |
| 20260506192142 | 47 | 70 | 1.7 | 5.2 | 0.00 | 0.69 | 0.69 | 94 | 1000.5 |
| 20260506191639 | 47 | 337 | 0.9 | 2.6 | 0.00 | 0.69 | 0.69 | 95 | 1000.5 |
| 20260506191135 | 47 | 40 | 5.2 | 6.1 | 0.00 | 0.69 | 0.69 | 94 | 1000.6 |
| 20260506190632 | 47 | 349 | 2.6 | 7.8 | 0.00 | 0.69 | 0.69 | 95 | 1000.6 |
| 20260506190129 | 47 | 305 | 3.5 | 7.0 | 0.00 | 0.69 | 0.69 | 95 | 1000.6 |
| 20260506185626 | 46 | 293 | 3.5 | 7.8 | 0.00 | 0.69 | 0.69 | 95 | 1000.5 |
| 20260506185122 | 46 | 104 | 1.7 | 7.8 | 0.00 | 0.69 | 0.69 | 96 | 1000.6 |
| 20260506184620 | 46 | 350 | 3.5 | 13.0 | 0.00 | 0.69 | 0.69 | 95 | 1000.7 |
| 20260506184117 | 46 | 321 | 1.7 | 9.6 | 0.02 | 0.69 | 0.69 | 96 | 1000.7 |
| 20260506183614 | 47 | 23 | 4.3 | 6.1 | 0.02 | 0.69 | 0.69 | 97 | 1000.6 |
| 20260506183109 | 46 | 232 | 0.9 | 5.2 | 0.05 | 0.69 | 0.69 | 97 | 1000.9 |
| 20260506182607 | 46 | 79 | 2.6 | 6.1 | 0.07 | 0.69 | 0.69 | 97 | 1000.9 |
| 20260506182104 | 46 | 288 | 5.2 | 9.6 | 0.07 | 0.68 | 0.68 | 96 | 1001.0 |
| 20260506181602 | 46 | 215 | 0.9 | 4.3 | 0.07 | 0.67 | 0.67 | 96 | 1001.3 |
| 20260506181059 | 46 | 115 | 3.5 | 5.2 | 0.09 | 0.67 | 0.67 | 96 | 1001.0 |
| 20260506180555 | 46 | 316 | 2.6 | 3.5 | 0.07 | 0.66 | 0.66 | 96 | 1001.0 |
| 20260506180052 | 47 | 267 | 5.2 | 5.2 | 0.07 | 0.65 | 0.65 | 96 | 1000.9 |
| 20260506175548 | 47 | 88 | 2.6 | 7.0 | 0.05 | 0.65 | 0.65 | 96 | 1001.2 |
| 20260506175045 | 47 | 313 | 3.5 | 5.2 | 0.07 | 0.64 | 0.64 | 96 | 1001.2 |
| 20260506174544 | 47 | 286 | 3.5 | 8.7 | 0.07 | 0.64 | 0.64 | 96 | 1001.2 |
| 20260506174039 | 47 | 352 | 1.7 | 11.3 | 0.09 | 0.63 | 0.63 | 96 | 1001.1 |
| 20260506173537 | 47 | 0 | 3.5 | 10.4 | 0.12 | 0.63 | 0.63 | 95 | 1001.5 |
| 20260506173034 | 48 | 308 | 8.7 | 11.3 | 0.17 | 0.61 | 0.61 | 95 | 1001.2 |
| 20260506172531 | 48 | 343 | 5.2 | 8.7 | 0.19 | 0.61 | 0.61 | 95 | 1001.3 |
| 20260506172027 | 50 | 330 | 8.7 | 11.3 | 0.14 | 0.59 | 0.59 | 93 | 1001.3 |
| 20260506171525 | 51 | 151 | 1.7 | 3.5 | 0.07 | 0.57 | 0.57 | 94 | 1001.1 |
| 20260506171022 | 54 | 311 | 10.4 | 10.4 | 0.05 | 0.56 | 0.56 | 91 | 1000.9 |
| 20260506170520 | 56 | 53 | 2.6 | 3.5 | 0.09 | 0.56 | 0.56 | 96 | 1001.2 |
| 20260506170017 | 56 | 36 | 5.2 | 5.2 | 0.21 | 0.55 | 0.55 | 96 | 1001.0 |
| 20260506165515 | 56 | 40 | 1.7 | 3.5 | 0.33 | 0.54 | 0.54 | 96 | 1001.0 |
| 20260506165011 | 56 | 155 | 1.7 | 4.3 | 0.33 | 0.52 | 0.52 | 95 | 1001.0 |
| 20260506164508 | 56 | 103 | 0.9 | 3.5 | 0.14 | 0.48 | 0.48 | 96 | 1000.9 |
| 20260506164006 | 56 | 28 | 1.7 | 5.2 | 0.09 | 0.47 | 0.47 | 96 | 1001.0 |
| 20260506163501 | 56 | 28 | 1.7 | 4.3 | 0.09 | 0.46 | 0.46 | 96 | 1000.8 |
| 20260506162956 | 56 | 126 | 5.2 | 7.8 | 0.09 | 0.45 | 0.45 | 95 | 1000.9 |
| 20260506162454 | 56 | 131 | 7.0 | 7.0 | 0.09 | 0.44 | 0.44 | 95 | 1001.1 |
| 20260506161945 | 56 | 57 | 3.5 | 6.1 | 0.07 | 0.43 | 0.43 | 96 | 1001.1 |